Temp
7 7 7 8 7 8 8 8 8 7 7 7 7 7 7 7 7 7 7 7 6 6 6 5 5 5 4 4 4 4 3 4 3 3 4 4 4 4 5 5 4 4 4
7 8 7 7 7 8 8 7 7 7 7 7 7 7 7 7 7 7 6 6 6 6 6 5 5 5 4 4 4 3 3 3 3 3 3 4 4 4 5 4 4 4 4
8 7 7 7 7 8 8 7 7 7 7 7 7 7 7 7 6 6 6 6 5 5 5 5 5 5 5 4 4 4 4 4 4 4 4 4 4 3 4 4 4 5 3
7 7 7 7 7 7 7 7 7 7 7 7 7 7 7 6 6 5 6 6 6 6 5 5 5 5 4 4 4 4 4 4 4 4 4 4 4 3 3 3 3 3 4
7 7 7 7 7 7 7 7 7 7 7 7 7 7 6 6 6 6 6 6 6 6 5 5 5 5 4 4 4 4 4 4 4 4 4 4 4 3 3 3 2 4 4
7 6 6 7 7 7 7 7 7 7 6 6 6 7 7 7 7 6 6 6 6 5 5 5 5 5 4 4 4 4 4 4 4 4 4 3 4 4 4 3 2 3 3
7 7 7 7 7 7 7 7 7 7 6 6 7 7 7 6 6 6 6 5 5 5 5 5 4 4 4 4 4 4 4 3 3 4 4 4 4 4 4 4 3 3 2
7 7 7 7 7 7 7 7 7 7 7 7 6 6 6 6 6 5 5 5 4 4 4 4 4 4 4 4 4 3 3 3 3 4 3 3 3 3 3 4 4 2 2
7 7 7 7 7 7 7 7 7 6 6 6 6 6 5 5 5 5 5 5 4 4 4 4 4 3 3 3 3 3 3 3 3 3 3 3 3 3 3 2 3 3 3
7 7 6 6 7 7 7 7 6 6 6 6 5 5 5 5 5 5 5 4 4 4 4 4 3 3 3 3 3 3 3 3 2 2 2 3 3 3 3 3 3 3 3
7 6 6 6 6 6 6 6 6 6 6 6 5 5 5 5 5 4 4 4 4 4 4 4 4 3 3 2 2 2 2 2 2 2 2 2 2 3 3 3 2 2 2
7 6 6 6 6 6 6 6 6 5 5 5 5 5 5 5 5 5 4 4 4 4 4 3 3 3 3 3 2 2 2 2 2 2 2 2 2 2 2 2 2 2 2
6 5 5 6 6 5 6 6 5 5 5 5 5 5 5 5 4 4 4 3 3 3 3 3 3 3 3 3 2 2 2 1 1 1 1 2 2 1 1 1 2 2 2
6 6 5 5 5 5 5 5 5 5 5 5 4 4 4 4 3 3 3 3 3 2 2 2 2 2 2 2 2 1 1 2 1 1 1 1 1 1 1 1 1 1 1
5 5 4 4 4 4 4 4 4 4 4 4 4 3 3 3 3 3 2 2 2 2 1 1 1 1 1 1 1 1 2 2 2 1 1 1 1 1 1 1 1 1 1
5 5 4 4 3 4 4 3 4 3 3 3 3 3 2 3 3 2 2 1 1 1 1 1 0 1 1 0 1 1 1 1 1 1 1 1 1 1 1 1 0 0 0
5 5 4 4 3 4 4 4 4 3 3 3 3 3 2 2 2 2 1 1 0 0 0 0 0 0 -0 -0 0 1 1 1 1 1 1 1 0 1 1 0 -0 -1 -0
5 4 4 4 4 4 4 4 4 3 2 3 2 2 2 2 1 1 1 0 0 -0 -0 -0 -0 -0 -0 -0 0 1 0 0 0 0 0 0 -0 -0 0 0 0 -0 -1
4 4 4 4 4 4 4 4 3 2 2 2 2 1 0 -1 -1 -0 0 0 -0 -1 -1 -1 -1 -1 -1 -1 -0 -0 -0 -1 -1 -1 -1 -1 -1 -1 -1 -1 -1 -1 -1
5 4 4 3 3 3 3 3 2 2 2 1 1 1 0 -0 -1 -1 -1 -2 -2 -2 -2 -2 -2 -1 -2 -1 -1 -1 -1 -1 -1 -2 -2 -2 -3 -2 -2 -1 -1 -2 -2
5 4 4 3 3 3 2 2 2 1 1 1 0 -0 -1 -1 -2 -2 -2 -2 -2 -2 -2 -2 -1 -2 -2 -1 -1 -1 -2 -2 -2 -3 -3 -3 -3 -3 -3 -3 -2 -2 -2
5 5 4 3 3 2 2 1 1 1 0 -1 -1 -1 -1 -1 -2 -2 -2 -3 -3 -3 -3 -3 -3 -3 -3 -3 -3 -3 -2 -2 -2 -3 -4 -4 -4 -4 -4 -4 -4 -3 -3
4 3 3 3 2 2 2 2 2 1 0 -1 -1 -1 -2 -2 -2 -2 -2 -3 -3 -4 -4 -4 -4 -4 -4 -4 -4 -4 -4 -3 -3 -3 -4 -5 -5 -5 -5 -5 -5 -5 -5
4 4 3 3 3 2 2 1 1 -0 -0 -1 -1 -1 -1 -2 -2 -2 -3 -3 -3 -4 -4 -5 -5 -5 -5 -5 -6 -6 -6 -6 -6 -5 -5 -5 -6 -6 -6 -6 -6 -6 -6
4 3 3 2 2 2 2 2 1 0 -0 -1 -1 -1 -1 -2 -2 -3 -3 -4 -4 -4 -5 -5 -5 -5 -6 -6 -7 -7 -7 -8 -10 -10 -7 -8 -8 -8 -8 -7 -7 -6 -6
3 3 3 2 2 1 1 0 -0 -1 -1 -2 -2 -3 -3 -4 -4 -5 -4 -5 -5 -5 -6 -6 -6 -6 -7 -8 -8 -9 -10 -10 -11 -11 -11 -10 -10 -10 -10 -10 -9 -9 -8
Height
3182 3184 3187 3188 3190 3191 3193 3192 3193 3192 3192 3192 3192 3191 3190 3190 3189 3187 3187 3186 3186 3184 3183 3183 3182 3180 3179 3179 3179 3178 3176 3175 3173 3172 3171 3170 3170 3173 3171 3171 3171 3172 3171
3183 3185 3186 3188 3190 3191 3192 3192 3192 3192 3191 3191 3191 3191 3190 3189 3188 3187 3186 3184 3184 3183 3181 3179 3179 3178 3177 3176 3178 3175 3174 3173 3172 3168 3168 3171 3170 3172 3171 3171 3170 3169 3171
3183 3186 3187 3189 3191 3191 3192 3192 3192 3191 3191 3191 3190 3189 3188 3187 3186 3185 3184 3184 3182 3181 3181 3177 3177 3176 3174 3174 3174 3173 3172 3172 3170 3167 3167 3167 3168 3168 3169 3168 3167 3167 3169
3183 3186 3187 3189 3191 3191 3192 3191 3191 3191 3190 3190 3188 3187 3185 3184 3182 3183 3181 3181 3181 3180 3178 3176 3175 3174 3173 3172 3171 3170 3168 3167 3166 3165 3167 3167 3167 3166 3167 3165 3165 3166 3167
3183 3185 3187 3189 3190 3191 3191 3191 3190 3189 3188 3187 3186 3185 3184 3183 3181 3182 3181 3181 3179 3179 3178 3175 3173 3172 3171 3171 3170 3168 3166 3165 3163 3162 3162 3163 3163 3163 3164 3164 3163 3165 3164
3183 3185 3187 3189 3190 3191 3190 3189 3188 3187 3186 3186 3185 3184 3183 3182 3181 3181 3180 3180 3179 3177 3176 3174 3172 3171 3170 3170 3169 3167 3165 3163 3162 3161 3161 3161 3162 3162 3160 3160 3160 3160 3160
3184 3186 3188 3189 3190 3189 3188 3187 3187 3186 3185 3185 3185 3184 3184 3183 3182 3180 3180 3179 3178 3175 3175 3172 3171 3170 3169 3168 3167 3165 3163 3161 3160 3160 3160 3160 3159 3159 3158 3157 3157 3159 3159
3185 3186 3187 3188 3188 3188 3187 3187 3186 3186 3185 3184 3184 3184 3183 3182 3180 3180 3178 3177 3177 3176 3173 3171 3170 3168 3167 3166 3165 3163 3162 3160 3158 3158 3158 3157 3157 3156 3155 3154 3153 3154 3156
3183 3186 3186 3187 3186 3186 3186 3186 3185 3184 3184 3184 3184 3183 3181 3181 3179 3178 3176 3175 3175 3174 3171 3168 3166 3165 3163 3163 3161 3160 3158 3157 3155 3155 3154 3155 3155 3153 3152 3151 3151 3150 3150
3183 3185 3185 3185 3185 3186 3186 3186 3185 3185 3186 3185 3183 3183 3181 3180 3180 3177 3176 3174 3174 3172 3169 3166 3163 3161 3160 3159 3158 3156 3154 3152 3151 3151 3150 3149 3151 3151 3150 3149 3148 3147 3146
3183 3184 3184 3184 3184 3184 3184 3185 3185 3186 3185 3185 3185 3185 3183 3181 3178 3177 3175 3173 3172 3170 3167 3164 3162 3159 3157 3155 3154 3153 3151 3148 3146 3146 3146 3144 3144 3144 3144 3143 3143 3142 3142
3182 3182 3182 3184 3183 3182 3184 3185 3185 3186 3186 3184 3185 3183 3181 3180 3177 3175 3173 3171 3171 3168 3164 3162 3160 3157 3155 3153 3152 3150 3148 3146 3143 3142 3142 3141 3140 3138 3138 3138 3137 3137 3137
3180 3181 3182 3182 3181 3184 3183 3185 3186 3186 3186 3184 3181 3181 3178 3177 3175 3173 3171 3169 3167 3165 3163 3160 3157 3154 3152 3150 3149 3147 3146 3144 3141 3139 3137 3136 3134 3134 3133 3132 3132 3131 3131
3178 3180 3180 3180 3180 3182 3183 3181 3183 3183 3183 3181 3179 3177 3175 3174 3172 3170 3168 3167 3165 3162 3159 3156 3153 3151 3149 3146 3144 3143 3141 3140 3138 3136 3133 3132 3131 3129 3128 3128 3127 3126 3125
3176 3179 3180 3179 3180 3180 3182 3181 3181 3182 3182 3179 3179 3176 3174 3172 3169 3167 3165 3163 3160 3157 3154 3151 3149 3146 3144 3142 3140 3137 3136 3134 3132 3130 3130 3128 3125 3124 3123 3122 3122 3121 3120
3176 3178 3179 3180 3179 3180 3179 3178 3177 3177 3176 3175 3176 3173 3171 3169 3167 3165 3162 3159 3155 3152 3149 3147 3143 3140 3138 3135 3134 3132 3129 3127 3125 3122 3119 3119 3119 3118 3117 3116 3115 3115 3115
3174 3177 3177 3178 3179 3183 3183 3179 3177 3175 3174 3172 3171 3170 3168 3166 3164 3162 3159 3155 3151 3147 3145 3142 3138 3135 3131 3129 3126 3124 3121 3119 3118 3116 3113 3110 3109 3108 3109 3108 3107 3108 3108
3174 3175 3174 3175 3176 3179 3179 3177 3175 3173 3171 3168 3165 3164 3163 3161 3159 3157 3154 3149 3145 3142 3138 3135 3131 3127 3123 3119 3116 3115 3113 3110 3108 3106 3104 3103 3100 3098 3098 3098 3099 3099 3099
3171 3172 3173 3173 3173 3174 3175 3173 3171 3168 3168 3164 3161 3157 3155 3152 3149 3147 3146 3143 3138 3134 3130 3126 3122 3117 3112 3109 3105 3104 3103 3100 3098 3095 3093 3092 3091 3088 3086 3086 3085 3086 3088
3170 3171 3171 3172 3172 3171 3169 3166 3164 3165 3161 3159 3155 3151 3146 3144 3142 3139 3136 3132 3128 3124 3121 3117 3111 3107 3102 3095 3093 3090 3089 3088 3087 3084 3081 3079 3077 3077 3077 3076 3076 3075 3076
3171 3171 3169 3167 3167 3166 3164 3162 3162 3159 3156 3153 3148 3145 3143 3140 3136 3133 3129 3124 3119 3114 3109 3104 3100 3097 3092 3087 3082 3079 3077 3076 3074 3074 3072 3068 3067 3066 3065 3065 3065 3065 3065
3169 3167 3164 3162 3161 3159 3159 3159 3158 3154 3151 3148 3143 3140 3137 3134 3130 3126 3120 3113 3107 3102 3097 3093 3089 3084 3079 3075 3071 3066 3060 3064 3063 3062 3059 3058 3056 3054 3053 3052 3052 3053 3053
3166 3166 3165 3164 3161 3160 3158 3156 3152 3150 3148 3143 3139 3136 3131 3126 3121 3115 3108 3102 3097 3092 3086 3081 3076 3072 3067 3064 3060 3055 3048 3044 3041 3047 3047 3045 3044 3042 3040 3039 3038 3039 3041
3163 3162 3162 3160 3158 3155 3153 3150 3147 3145 3142 3138 3134 3128 3123 3117 3111 3105 3099 3093 3088 3082 3076 3071 3065 3060 3054 3050 3045 3041 3037 3033 3028 3025 3027 3028 3029 3027 3025 3024 3024 3024 3024
3161 3158 3156 3154 3151 3148 3145 3141 3137 3133 3128 3124 3119 3115 3110 3105 3100 3095 3089 3083 3078 3072 3066 3060 3055 3050 3045 3040 3035 3029 3027 3024 3020 3015 3010 3009 3013 3013 3011 3009 3008 3009 3010
3156 3154 3150 3144 3141 3138 3135 3133 3129 3125 3120 3115 3110 3105 3101 3097 3091 3084 3078 3073 3068 3061 3055 3050 3045 3040 3035 3030 3025 3021 3017 3014 3012 3009 3004 3001 3000 3002 3000 2998 2996 2995 2996
Wind_Speed
11 13 12 12 11 9 7 4 2 2 2 3 3 4 5 6 9 11 12 14 15 16 16 15 17 18 17 14 14 13 12 14 15 16 14 14 14 12 8 9 9 9 8
11 13 14 12 11 9 6 2 5 4 4 3 4 6 9 12 14 15 15 15 16 17 18 18 18 16 17 17 15 14 15 15 15 17 16 13 13 10 10 10 13 8 9
12 15 12 12 10 8 4 5 5 5 5 6 8 11 14 16 16 16 15 15 15 15 15 16 16 15 15 15 15 16 16 16 16 17 17 16 12 10 6 16 7 9 10
14 17 14 12 7 6 5 4 4 6 9 11 13 16 15 13 12 12 11 10 10 10 11 11 11 12 13 14 16 17 17 17 17 18 19 18 13 11 10 14 9 13 14
14 16 12 11 7 6 4 6 9 12 15 16 15 11 7 6 6 6 6 7 8 10 12 12 12 12 10 10 11 12 12 13 14 15 15 14 12 11 13 15 17 12 13
13 12 10 8 6 4 6 11 13 12 10 7 3 4 6 8 8 7 10 10 11 12 13 13 12 12 10 10 10 10 10 11 10 10 10 10 10 9 9 11 14 13 12
14 12 10 7 4 6 11 9 5 3 1 3 6 8 10 10 10 12 13 14 15 15 15 15 14 14 13 13 13 13 13 13 13 12 11 11 12 12 11 12 9 10 13
11 9 6 4 6 9 7 2 4 4 4 6 9 11 11 11 11 12 12 13 14 15 16 16 16 16 16 17 17 17 17 17 17 16 15 14 13 14 14 14 13 15 13
9 6 4 6 8 7 2 4 5 5 7 9 9 9 10 11 12 13 15 17 18 18 19 19 20 20 19 18 17 18 19 19 20 18 18 17 15 14 13 13 13 14 16
7 5 5 7 6 2 4 5 6 7 7 7 8 9 10 12 13 14 16 18 20 21 22 23 23 22 21 20 19 17 17 17 18 18 19 20 18 17 17 16 15 14 14
5 6 5 5 3 3 3 4 4 5 7 8 10 11 12 14 17 18 18 19 21 22 23 22 22 22 22 21 20 17 16 15 17 17 16 17 17 16 17 17 17 17 17
4 4 2 2 2 3 5 4 6 7 8 9 12 14 17 20 20 21 21 22 23 24 24 23 22 21 21 19 18 17 16 16 16 17 15 16 17 15 15 17 18 19 19
5 10 9 6 4 4 1 2 1 2 6 10 14 17 20 21 21 22 24 24 25 24 22 21 21 21 21 20 17 17 17 16 19 21 20 18 17 16 16 18 18 19 21
6 12 15 11 7 4 5 5 6 6 8 12 16 20 21 23 23 24 26 26 25 26 24 22 23 24 24 24 23 21 22 22 23 24 24 24 22 21 17 17 18 20 21
6 15 15 9 8 8 9 9 10 14 14 15 17 20 22 24 25 27 30 27 27 27 27 25 26 27 28 27 27 28 28 28 28 28 27 27 28 28 26 22 19 19 21
7 11 10 8 8 10 10 7 16 19 21 18 19 21 22 23 26 28 31 29 29 31 30 30 32 33 31 31 30 32 33 34 34 33 33 33 30 28 28 26 24 21 21
7 11 13 16 10 14 23 17 14 17 22 23 23 23 24 26 28 27 29 29 30 33 35 35 38 40 38 36 37 36 37 38 39 39 38 39 39 38 33 29 25 22 23
9 12 14 15 12 14 10 13 17 16 21 26 26 27 29 29 29 30 31 32 35 38 40 42 44 44 45 44 42 40 43 43 42 41 41 40 41 41 41 38 32 29 26
17 16 17 17 20 20 25 23 20 16 21 24 27 28 29 28 31 33 34 37 41 44 44 45 47 47 48 46 45 43 41 40 41 42 41 39 40 43 44 43 40 36 32
18 18 21 18 18 22 23 20 16 19 23 26 31 33 32 34 36 37 38 39 45 46 46 49 48 47 46 48 47 46 44 42 41 40 41 40 41 42 44 46 46 42 37
21 21 20 23 24 21 15 14 17 23 26 28 31 32 34 35 38 39 40 45 48 49 51 51 50 47 47 48 48 47 44 42 42 41 40 42 43 44 43 44 44 46 46
23 26 26 19 16 16 16 19 21 23 24 25 28 31 33 36 38 40 44 47 49 50 50 49 47 47 46 46 47 48 52 47 44 42 43 43 45 46 45 43 42 43 44
24 14 15 17 19 20 23 27 28 28 28 28 31 33 34 36 39 43 46 47 47 46 46 48 47 46 47 47 48 48 50 54 55 50 45 44 44 45 46 45 44 44 44
19 19 18 20 23 26 26 24 23 23 25 30 32 35 38 40 40 40 40 44 46 46 47 46 48 48 48 48 48 49 49 49 52 58 54 50 47 46 48 49 48 46 48
21 23 24 25 27 27 27 28 32 36 37 37 38 40 40 40 42 42 42 46 47 47 48 48 49 50 49 49 48 48 49 43 35 42 51 49 43 39 42 46 47 48 49
19 21 22 26 29 30 32 35 38 41 42 42 42 43 44 43 43 42 47 48 47 46 46 46 47 48 47 46 43 40 38 35 37 38 37 37 34 28 27 31 36 39 43
Wind_Direction
168 171 171 168 177 168 162 154 177 222 247 244 307 321 327 311 296 294 294 296 299 305 303 298 300 297 300 299 295 293 295 298 296 292 290 286 287 291 296 283 268 258 252
178 179 180 171 172 175 176 254 308 283 295 297 305 306 300 291 282 284 289 291 293 295 295 295 295 294 295 300 297 298 298 296 293 295 289 280 276 285 291 282 276 250 248
170 184 177 169 184 194 218 292 304 301 298 295 292 294 298 298 295 292 291 292 296 298 296 296 296 298 298 298 298 300 304 300 295 291 285 289 291 276 264 289 257 265 251
180 184 179 183 198 213 281 290 298 295 288 289 293 298 297 297 294 292 295 304 311 321 327 331 319 311 307 305 303 303 305 304 297 289 289 289 284 264 252 192 243 279 259
171 181 187 197 213 234 276 297 298 292 290 290 290 292 305 325 348 354 355 346 345 342 342 345 349 348 340 329 324 318 314 308 304 301 305 304 297 286 269 252 269 253 257
165 176 184 200 209 246 288 297 297 297 294 283 295 348 356 354 352 351 348 340 334 336 339 341 343 341 339 334 329 324 325 322 322 322 324 312 311 318 307 283 299 239 250
157 157 165 174 223 286 299 297 298 309 27 29 14 1 352 358 346 341 339 339 338 336 335 335 332 327 324 322 320 319 317 314 313 316 315 315 319 319 317 304 286 260 260
148 153 172 226 280 300 299 304 354 352 344 346 357 360 356 349 339 341 344 346 342 342 340 335 328 323 319 316 315 312 310 307 306 308 307 307 311 308 311 309 301 282 271
162 181 225 280 302 305 323 331 334 353 356 353 358 356 354 353 352 354 353 350 348 348 345 341 336 332 327 321 313 308 305 302 301 301 297 296 297 298 298 295 290 282 273
196 232 285 297 291 285 312 322 345 351 354 358 11 5 3 3 355 351 347 347 345 343 342 340 338 336 331 324 318 312 303 299 297 297 295 295 293 287 279 277 276 275 270
252 283 275 263 261 298 319 355 15 6 23 20 21 12 0 354 353 350 344 342 339 336 335 335 331 328 327 328 325 322 313 302 293 290 288 288 286 281 276 274 271 271 274
292 313 287 284 293 328 350 16 34 25 19 10 3 2 353 351 346 343 338 337 336 334 333 332 331 328 324 320 319 321 320 318 311 304 300 291 284 278 270 264 263 262 261
39 31 21 347 324 1 359 74 9 2 354 354 349 344 344 341 340 335 331 331 328 328 325 322 325 327 326 321 320 320 320 321 315 311 309 305 300 294 277 268 258 254 255
22 22 8 5 350 327 336 332 323 335 335 341 338 332 336 332 333 331 325 321 319 320 317 320 322 321 319 318 313 311 310 310 311 310 308 306 301 292 282 274 268 262 256
349 353 343 345 358 336 317 321 326 327 327 327 325 322 325 324 324 325 320 316 315 317 312 314 317 312 307 302 301 300 299 299 300 299 295 293 295 294 292 283 269 264 259
306 324 304 283 276 292 309 326 325 315 315 322 315 315 313 313 313 315 314 310 307 307 307 304 308 309 305 301 295 293 293 293 293 295 297 295 288 285 283 281 277 270 262
286 287 295 299 280 316 320 279 292 306 307 307 306 305 303 304 306 304 305 298 298 299 302 301 302 301 299 296 292 287 289 288 286 281 287 289 289 286 280 274 273 265 262
250 248 267 270 279 300 319 303 306 305 298 299 301 303 300 298 295 292 295 291 292 298 299 300 301 294 296 295 292 289 289 289 286 284 281 279 281 282 281 280 270 266 265
225 243 247 271 273 291 291 300 305 305 294 299 302 297 296 292 287 287 293 296 299 302 302 303 300 296 295 294 293 293 290 287 287 284 283 281 279 279 278 274 276 273 266
234 251 265 262 278 291 296 305 306 299 293 292 289 287 283 289 294 297 297 293 301 300 298 297 297 296 297 296 297 294 291 288 284 281 278 276 274 273 273 273 272 271 273
242 244 253 276 287 292 300 298 296 292 295 292 289 289 292 293 293 292 292 295 296 297 297 296 295 296 292 289 288 287 286 284 281 278 276 274 272 271 268 265 265 267 269
262 274 279 286 295 301 300 295 294 291 288 284 283 283 286 289 294 296 295 295 295 295 295 297 295 294 296 296 295 292 290 284 281 283 275 271 269 270 270 267 260 257 260
271 262 255 261 276 289 296 298 297 295 294 290 290 293 294 293 291 292 292 293 294 294 295 296 299 300 299 298 296 295 294 292 291 283 277 274 271 268 267 263 261 258 255
276 275 277 286 291 293 294 293 290 293 293 290 288 288 289 291 292 294 294 295 296 296 297 297 297 299 300 301 301 300 297 296 293 288 283 280 274 270 267 264 262 257 256
295 294 294 292 293 298 302 307 311 312 313 311 309 310 307 304 302 300 301 300 298 296 296 297 299 300 301 301 300 298 295 294 293 294 286 285 282 277 270 267 264 260 255
306 307 313 315 316 318 317 319 321 321 317 315 313 313 310 306 303 298 300 300 299 298 297 297 297 298 298 296 295 291 289 287 292 296 290 289 292 289 282 274 269 267 261